Regional Weather Roundup
Issued by NWS Upton, NY

Current Version | Previous Version | Text Only | Print | Product List | Glossary Off
Versions: 1 2 3 4 5 6 7 8 9 10 11 12 13 14 15 16 17 18 19 20 21 22 23 24 25 26 27 28 29 30 31 32 33 34 35 36 37 38 39 40 41 42 43 44 45 46 47 48
551 ASUS41 KOKX 140604 RWROKX REGIONAL WEATHER ROUNDUP NATIONAL WEATHER SERVICE NEW YORK NY 100 AM EST SUN FEB 14 2016 NOTE: "FAIR" INDICATES FEW OR NO CLOUDS BELOW 12,000 FEET WITH NO SIGNIFICANT WEATHER AND/OR OBSTRUCTIONS TO VISIBILITY. NYZ071-072-176-178-NJZ106-104-140700- NEW YORK CITY METRO AREA CITY SKY/WX TMP DP RH WIND PRES REMARKS CENTRAL PARK CLEAR 6 -15 37 NW16G26 30.33R WCI -12 LAGUARDIA APRT PTCLDY 8 -9 45 NW24G31 30.32R WCI -13 KENNEDY INTL PTCLDY 7 -17 32 NW23G35 30.34R WCI -14 NEWARK/LIBERTY PTCLDY 6 -15 37 NW23G29 30.34R WCI -15 BRNX BOT. GARD N/A 7 -13 40 W14 30.33R WCI -10 TETERBORO CLEAR 6 -16 35 NW20G29 30.33R WCI -14 $$ NYZ177-179-078>081-140700- LONG ISLAND NEW YORK CITY SKY/WX TMP DP RH WIND PRES REMARKS FARMINGDALE CLEAR 8 -15 34 NW13G24 30.31R WCI -8 ISLIP CLOUDY 5 -14 41 NW15 30.28R WCI -13 SHIRLEY MOCLDY 4 -13 45 NW14G23 30.29R WCI -14 RIVERHEAD N/A 7 -20 28 W8 30.25R WCI -6 WESTHAMPTON CLOUDY 3 -12 49 NW10 30.29R WCI -12 EAST HAMPTON CLOUDY 3 -12 48 NW10G22 30.25R WCI -12 MONTAUK POINT N/A 4 -7 60 NW26G38 30.25R WCI -19 $$ NYZ052-065-067-140700- HUDSON VALLEY CITY SKY/WX TMP DP RH WIND PRES REMARKS WHITE PLAINS PTCLDY 3 -12 49 NW21G32 30.25R WCI -18 NEWBURGH CLEAR 0 -15 50 NW12G23 30.28R WCI -18 MONTGOMERY CLEAR 0 -14 51 NW8G18 30.29R WCI -14 POUGHKEEPSIE CLEAR 1 -16 44 N8 30.32R WCI -13 ALBANY CLEAR -9 -25 45 NW13 30.35R WCI -29 $$ NJZ001-105-106-008-010-013-015-019>022-104-140700- NEW JERSEY CITY SKY/WX TMP DP RH WIND PRES REMARKS NEWARK/LIBERTY PTCLDY 6 -15 37 NW23G29 30.34R WCI -15 TETERBORO CLEAR 6 -16 35 NW20G29 30.33R WCI -14 CALDWELL CLEAR 5 -17 35 NW12G23 30.33R WCI -11 MORRISTOWN CLEAR 5 -18 33 NW9G26 30.33R WCI -9 SOMERVILLE PTCLDY 6 -11 45 NW16G24 30.34R WCI -12 SUSSEX CLEAR 2 -14 47 NW8G16 30.27R WCI -12 ANDOVER N/A 2 -15 45 W9 30.29R WCI -13 TRENTON PTCLDY 8 -7 50 N10 30.34R WCI -6 MILLVILLE CLEAR 13 -6 42 NW14 30.38S WCI -2 ATLANTIC CITY PTCLDY 12 -5 46 NW15 30.35S WCI -4 WRIGHTSTOWN NOT AVBL TOMS RIVER CLEAR 10 -11 37 NW13G21 30.34R WCI -5 BELMAR CLEAR 7 -13 40 NW15 30.33R WCI -11 $$ PAZ047>061-062-071-140700- EASTERN PENNSYLVANIA CITY SKY/WX TMP DP RH WIND PRES REMARKS PHILADELPHIA PTCLDY 13 -8 39 NW13G25 30.39R WCI -2 ALLENTOWN CLOUDY 8 -8 48 NW10 30.34R WCI -6 SCRANTON MOCLDY 1 -11 57 NW10G20 30.28R WCI -15 $$ CTZ002-004>006-009-010-012-RIZ004-006-007-MAZ004-011-015-140700- SOUTHERN NEW ENGLAND IN CT CITY SKY/WX TMP DP RH WIND PRES REMARKS BRADLEY INTL CLEAR -7 -26 39 NW22G29 30.27R WCI -32 HARTFORD PTCLDY -4 -23 39 NW13 30.31R WCI -23 DANBURY PTCLDY -3 -16 53 NW9 30.27R WCI -19 WTRBRY/OXFORD CLEAR -8 -27 37 NW8G17 30.22R WCI -23 BRIDGEPORT PTCLDY 1 -10 60 N13 30.31R WCI -17 MERIDEN PTCLDY -2 -21 40 NW13G20 30.29R WCI -20 NEW HAVEN CLEAR -1 -15 51 N14G22 30.29R WCI -20 CHESTER FAIR -2 -20 42 NW14G25 30.23R WCI -21 GROTON CLEAR -2 -16 51 NW23G37 30.25R WCI -26 WILLIMANTIC PTCLDY -4 -25 35 NW13G22 30.23R WCI -23 IN RI CITY SKY/WX TMP DP RH WIND PRES REMARKS PROVIDENCE CLEAR -3 -22 39 W15G22 30.20R WCI -23 BLOCK ISLAND MOCLDY 1 -8 66 NW18G35 30.18R WCI -19 WESTERLY CLEAR -2 -20 42 NW10G26 30.23R WCI -19 IN MA CITY SKY/WX TMP DP RH WIND PRES REMARKS BOSTON PTCLDY -6 -23 43 W24G35 30.17R WCI -32 WORCESTER CLEAR -12 -27 47 W18G29 30.07R WCI -37 WESTFIELD PTCLDY -9 -28 39 N10G23 30.25R WCI -27 PROVINCETOWN LGT SNOW 1 -7 68 NW25G33 30.12R WCI -23 NANTUCKET CLOUDY 4 -10 52 NW22G32 30.12R WCI -18 $$ ANZ330-335-338-340-345-350-353-355-140700- COASTAL MARINE OBSERVATIONS STATION/POSITION TIME SKY/WX TEMP WIND PRES VSBY WAVE AIR SEA DIR/SP/G HT/PER (UTC) (F) (DEG/KT/KT) (MB) (MI) (FT/S) NY HARB ENTRANCE 0450 13 43 300/ 31/ 43 1025.3 6/ 5 4S FIRE IS NOT AVBL 20S FIRE ISLAND 0450 12 41 310/ 29/ 39 1024.9 9/ 6 GREAT SOUTH BAY NOT AVBL 23SW MTP 0550 9 44 310/ 29/ 39 1023.3 9/ 7 HUDSON CANYON 0450 17 47 1024.1 15/ 9 KINGS POINT 0500 7 33 360/ 23/ 29 1025.9 EXECUTION ROCKS NOT AVBL CENTRAL LI SOUND 0530 5 340/ 17/ 23 N/A 5/ 6 EASTERN LI SOUND 0500 6 40 310/ 21/ 29 N/A ROBBINS REEF 0500 7 300/ 22/ 28 1025.9 $$ >>>>>>>>>>>>>>>>>>>>>>>>>>>> KEY <<<<<<<<<<<<<<<<<<<<<<<<<<< > < > SKY/WX - SKY CONDITION/PRESENT WEATHER < > TMP - TEMPERATURE IN FAHRENHEIT < > DP - DEWPOINT IN FAHRENHEIT < > RH - RELATIVE HUMIDITY IN PERCENT < > WIND - DIRECTION AND SPEED IN MPH < > PRES - MEAN SEA LEVEL PRESSURE IN INCHES OF HG < > WCI - WIND CHILL INDEX < > VSB - VISIBILITY IN MILES < > HX - HEAT INDEX < > TC - TEMPERATURE IN CELSIUS < > VRB - VARIABLE WIND DIRECTION < > < >>>>>>>>>>>>>>>>>>>>>>>>>>>> KEY <<<<<<<<<<<<<<<<<<<<<<<<<<<

USA.gov is the U.S. government's official web portal to all federal, state and local government web resources and services.